• In Uzbekistan
  • List of Countries
  • For 7 days
  • Water Temperature
  • Satellite Maps
  • Weather Map
  • Weather Widgets
  • user-avatar
    Login

    Hourly Weather Mendoza

    Today, 24 February, Saturday

    Time Temperature Precipitation Wind Pressure Humidity
    00:00 +19°C° 0.1 mm 3 mps 700 mmHg 81%
    01:00 +19°C° 0 mm 2 mps 700 mmHg 81%
    02:00 +18°C° 0 mm 2 mps 700 mmHg 81%
    03:00 +18°C° 0 mm 2 mps 700 mmHg 82%
    04:00 +18°C° 0 mm 2 mps 699 mmHg 82%
    05:00 +18°C° 0 mm 2 mps 699 mmHg 81%
    06:00 +18°C° 0 mm 3 mps 700 mmHg 80%
    07:00 +18°C° 0 mm 2 mps 700 mmHg 78%
    08:00 +19°C° 0 mm 2 mps 700 mmHg 75%
    09:00 +20°C° 0 mm 2 mps 700 mmHg 71%
    10:00 +20°C° 0 mm 2 mps 700 mmHg 68%
    11:00 +21°C° 0 mm 2 mps 699 mmHg 64%
    12:00 +23°C° 0 mm 2 mps 699 mmHg 61%
    13:00 +24°C° 0 mm 2 mps 699 mmHg 57%
    14:00 +25°C° 0.1 mm 2 mps 699 mmHg 56%
    15:00 +25°C° 0.1 mm 2 mps 699 mmHg 55%
    16:00 +25°C° 0.1 mm 2 mps 699 mmHg 54%
    17:00 +25°C° 0.1 mm 2 mps 699 mmHg 57%
    18:00 +24°C° 0.1 mm 2 mps 699 mmHg 59%
    19:00 +24°C° 0.1 mm 2 mps 699 mmHg 61%
    20:00 +24°C° 0.2 mm 2 mps 700 mmHg 62%
    21:00 +23°C° 0.2 mm 2 mps 700 mmHg 64%
    22:00 +23°C° 0.2 mm 2 mps 700 mmHg 65%
    23:00 +23°C° 0 mm 1 mps 700 mmHg 66%

    Tomorrow, 25 February, Sunday

    Time Temperature Precipitation Wind Pressure Humidity
    00:00 +22°C° 0 mm 1 mps 700 mmHg 67%
    01:00 +22°C° 0 mm 1 mps 700 mmHg 67%
    02:00 +22°C° 0 mm 1 mps 700 mmHg 69%
    03:00 +21°C° 0 mm 1 mps 700 mmHg 70%
    04:00 +21°C° 0 mm 1 mps 699 mmHg 71%
    05:00 +22°C° 0 mm 1 mps 700 mmHg 68%
    06:00 +22°C° 0 mm 1 mps 700 mmHg 66%
    07:00 +23°C° 0 mm 1 mps 700 mmHg 63%
    08:00 +24°C° 0 mm 1 mps 700 mmHg 58%
    09:00 +25°C° 0 mm 1 mps 700 mmHg 53%
    10:00 +27°C° 0 mm 1 mps 700 mmHg 48%
    11:00 +28°C° 0 mm 2 mps 700 mmHg 45%
    12:00 +29°C° 0 mm 2 mps 700 mmHg 41%
    13:00 +30°C° 0 mm 3 mps 699 mmHg 38%
    14:00 +30°C° 0.1 mm 3 mps 699 mmHg 37%
    15:00 +30°C° 0.1 mm 3 mps 699 mmHg 37%
    16:00 +30°C° 0.1 mm 3 mps 698 mmHg 36%
    17:00 +29°C° 0.2 mm 2 mps 699 mmHg 39%
    18:00 +29°C° 0.2 mm 2 mps 699 mmHg 41%
    19:00 +28°C° 0.2 mm 2 mps 699 mmHg 44%
    20:00 +28°C° 0.1 mm 2 mps 699 mmHg 45%
    21:00 +27°C° 0.1 mm 1 mps 700 mmHg 47%
    22:00 +27°C° 0.1 mm 1 mps 700 mmHg 48%
    23:00 +26°C° 0.1 mm 1 mps 699 mmHg 50%

    Day after tomorrow, 26 February, Monday

    Time Temperature Precipitation Wind Pressure Humidity
    00:00 +26°C° 0.1 mm 1 mps 699 mmHg 52%
    01:00 +25°C° 0.1 mm 1 mps 699 mmHg 54%
    02:00 +25°C° 0 mm 1 mps 699 mmHg 55%
    03:00 +24°C° 0 mm 1 mps 698 mmHg 56%
    04:00 +24°C° 0 mm 1 mps 698 mmHg 57%
    05:00 +25°C° 0 mm 1 mps 698 mmHg 54%
    06:00 +25°C° 0 mm 1 mps 699 mmHg 51%
    07:00 +26°C° 0 mm 1 mps 699 mmHg 47%
    08:00 +27°C° 0 mm 2 mps 699 mmHg 43%
    09:00 +29°C° 0 mm 3 mps 699 mmHg 39%
    10:00 +30°C° 0 mm 3 mps 699 mmHg 35%
    11:00 +32°C° 0 mm 4 mps 698 mmHg 34%
    12:00 +33°C° 0 mm 4 mps 698 mmHg 32%
    13:00 +34°C° 0 mm 5 mps 697 mmHg 30%
    14:00 +34°C° 0.2 mm 4 mps 697 mmHg 30%
    15:00 +34°C° 0.2 mm 4 mps 696 mmHg 30%
    16:00 +34°C° 0.2 mm 4 mps 696 mmHg 30%
    17:00 +33°C° 0.3 mm 3 mps 696 mmHg 32%
    18:00 +31°C° 0.3 mm 2 mps 696 mmHg 34%
    19:00 +30°C° 0.3 mm 2 mps 696 mmHg 36%
    20:00 +29°C° 0.5 mm 2 mps 697 mmHg 39%
    21:00 +29°C° 0.5 mm 1 mps 697 mmHg 41%
    22:00 +28°C° 0.5 mm 1 mps 697 mmHg 44%
    23:00 +28°C° 0.5 mm 1 mps 697 mmHg 46%

    27 February, Tuesday

    Time Temperature Precipitation Wind Pressure Humidity
    00:00 +27°C° 0.5 mm 1 mps 696 mmHg 48%
    01:00 +27°C° 0.5 mm 1 mps 696 mmHg 50%
    02:00 +26°C° 0.1 mm 2 mps 696 mmHg 50%
    03:00 +26°C° 0.1 mm 2 mps 696 mmHg 50%
    04:00 +25°C° 0.1 mm 2 mps 696 mmHg 50%
    05:00 +25°C° 0.2 mm 3 mps 696 mmHg 49%
    06:00 +25°C° 0.2 mm 4 mps 697 mmHg 49%
    07:00 +25°C° 0.2 mm 5 mps 697 mmHg 49%
    08:00 +26°C° 0.5 mm 5 mps 698 mmHg 49%
    09:00 +27°C° 0.5 mm 6 mps 698 mmHg 48%
    10:00 +28°C° 0.5 mm 6 mps 698 mmHg 48%
    11:00 +28°C° 1.6 mm 6 mps 698 mmHg 50%
    12:00 +27°C° 1.6 mm 6 mps 698 mmHg 52%
    13:00 +27°C° 1.6 mm 6 mps 697 mmHg 54%
    14:00 +26°C° 3.8 mm 5 mps 697 mmHg 58%
    15:00 +26°C° 3.8 mm 5 mps 697 mmHg 62%
    16:00 +25°C° 3.8 mm 5 mps 696 mmHg 66%
    17:00 +23°C° 4.8 mm 5 mps 697 mmHg 70%
    18:00 +22°C° 4.8 mm 6 mps 697 mmHg 74%
    19:00 +21°C° 4.8 mm 6 mps 698 mmHg 78%
    20:00 +21°C° 3.6 mm 5 mps 698 mmHg 77%
    21:00 +21°C° 3.6 mm 5 mps 699 mmHg 76%
    22:00 +21°C° 3.6 mm 4 mps 699 mmHg 76%
    23:00 +21°C° 1.2 mm 4 mps 699 mmHg 76%

    28 February, Wednesday

    Time Temperature Precipitation Wind Pressure Humidity
    00:00 +21°C° 1.2 mm 3 mps 699 mmHg 76%
    01:00 +21°C° 1.2 mm 3 mps 699 mmHg 76%
    02:00 +20°C° 0.7 mm 3 mps 699 mmHg 74%
    03:00 +20°C° 0.7 mm 3 mps 698 mmHg 73%
    04:00 +20°C° 0.7 mm 3 mps 698 mmHg 71%
    05:00 +20°C° 0.9 mm 3 mps 699 mmHg 70%
    06:00 +20°C° 0.9 mm 3 mps 699 mmHg 69%
    07:00 +20°C° 0.9 mm 3 mps 699 mmHg 68%
    08:00 +20°C° 1.3 mm 3 mps 699 mmHg 68%
    09:00 +20°C° 1.3 mm 3 mps 699 mmHg 67%
    10:00 +20°C° 1.3 mm 3 mps 699 mmHg 67%
    11:00 +21°C° 1.2 mm 3 mps 699 mmHg 63%
    12:00 +21°C° 1.2 mm 3 mps 699 mmHg 59%
    13:00 +22°C° 1.2 mm 3 mps 698 mmHg 56%
    14:00 +22°C° 0.6 mm 3 mps 698 mmHg 54%
    15:00 +24°C° 0.6 mm 3 mps 698 mmHg 53%
    16:00 +24°C° 0.6 mm 3 mps 698 mmHg 52%
    17:00 +24°C° 0.3 mm 2 mps 698 mmHg 54%
    18:00 +23°C° 0.3 mm 2 mps 698 mmHg 56%
    19:00 +23°C° 0.3 mm 1 mps 699 mmHg 58%
    20:00 +23°C° 0.2 mm 1 mps 699 mmHg 59%
    21:00 +22°C° 0.2 mm 1 mps 699 mmHg 60%
    22:00 +22°C° 0.2 mm 1 mps 699 mmHg 61%
    23:00 +22°C° 0.1 mm 1 mps 699 mmHg 63%

    1 March, Thursday

    Time Temperature Precipitation Wind Pressure Humidity
    00:00 +21°C° 0.1 mm 1 mps 698 mmHg 64%
    01:00 +19°C° 0.1 mm 0 mps 698 mmHg 66%
    02:00 +21°C° 0.1 mm 1 mps 698 mmHg 66%
    03:00 +21°C° 0.1 mm 1 mps 698 mmHg 66%
    04:00 +21°C° 0.1 mm 1 mps 698 mmHg 65%
    05:00 +21°C° 0 mm 1 mps 698 mmHg 61%
    06:00 +22°C° 0 mm 1 mps 698 mmHg 56%
    07:00 +22°C° 0 mm 1 mps 699 mmHg 52%
    08:00 +24°C° 0 mm 1 mps 699 mmHg 48%
    09:00 +25°C° 0 mm 1 mps 699 mmHg 43%
    10:00 +26°C° 0 mm 2 mps 699 mmHg 39%
    11:00 +27°C° 0 mm 2 mps 699 mmHg 38%
    12:00 +28°C° 0 mm 2 mps 699 mmHg 36%
    13:00 +28°C° 0 mm 2 mps 698 mmHg 34%
    14:00 +28°C° 0 mm 3 mps 698 mmHg 35%
    15:00 +29°C° 0 mm 3 mps 698 mmHg 35%
    16:00 +29°C° 0 mm 3 mps 697 mmHg 35%
    17:00 +28°C° 0 mm 3 mps 698 mmHg 38%
    18:00 +27°C° 0 mm 3 mps 698 mmHg 41%
    19:00 +26°C° 0 mm 2 mps 699 mmHg 44%
    20:00 +25°C° 0 mm 2 mps 699 mmHg 46%
    21:00 +25°C° 0 mm 2 mps 699 mmHg 48%
    22:00 +24°C° 0 mm 2 mps 699 mmHg 50%
    23:00 +24°C° 0 mm 2 mps 699 mmHg 51%
    Show more